Location: Honolulu
(21.2943°N, 157.8344°W)
Time: 12:57:10
(UTC-10:00)

ISS - Visible Passes

Search period start: 22 June 2018 00:00
Search period end: 02 July 2018 00:00
Orbit: 402 x 408 km, 51.6° (Epoch: 23 June)

Date Brightness Start Highest point End Pass type
(mag) Time Alt. Az. Time Alt. Az. Time Alt. Az.
25 Jun -1.2 05:00:54 10° SSE 05:03:03 16° SE 05:05:12 10° E visible
27 Jun -3.4 04:52:58 18° SSW 04:55:11 59° SE 04:58:25 10° NE visible
28 Jun -1.9 04:03:18 22° ESE 04:03:18 22° ESE 04:05:48 10° ENE visible
29 Jun -2.8 04:46:13 25° W 04:47:23 34° NW 04:50:25 10° NNE visible
30 Jun -2.5 03:56:22 39° NE 03:56:22 39° NE 03:58:32 10° NE visible
01 Jul -1.4 04:39:05 12° NW 04:39:42 12° NW 04:41:03 10° NNW visible
